EW5637 Weather Reports


Display with metric or nautical units.
time (UTC)temp
F
wind
direction
speed
MPH
gust
MPH
rain 1hr
in
rain 24hr
in
rain mn
in
humidity
%
barometer
mb
20260905085541 66 0 0.0 3.0 0.00 0.00 0.00 93 1011.5
20260905085043 66 0 0.0 3.0 0.00 0.00 0.00 93 1011.4
20260905084553 66 0 0.0 3.0 0.00 0.00 0.00 93 1011.3
20260905084038 66 0 0.0 2.0 0.00 0.00 0.00 93 1011.3
20260905083542 66 0 0.0 2.0 0.00 0.00 0.00 93 1011.4
20260905083053 67 309 0.0 2.0 0.00 0.00 0.00 92 1011.4
20260905082540 67 0 0.0 2.0 0.00 0.00 0.00 92 1011.2
20260905082037 67 0 1.0 4.0 0.00 0.00 0.00 92 1011.2
20260905081606 67 309 2.0 4.0 0.00 0.00 0.00 92 1011.4
20260905081038 67 309 1.0 4.0 0.00 0.00 0.00 92 1011.4
20260905080538 67 307 0.0 2.0 0.00 0.00 0.00 91 1011.4
20260905075542 68 0 0.0 3.0 0.00 0.00 0.00 91 1011.5
20260905075037 68 0 0.0 3.0 0.00 0.00 0.00 91 1011.6
20260905074553 68 307 0.0 3.0 0.00 0.00 0.00 90 1011.6
20260905074042 69 0 0.0 3.0 0.00 0.00 0.00 90 1011.5
20260905073541 69 0 1.0 3.0 0.00 0.00 0.00 90 1011.7
20260905073053 69 309 0.0 3.0 0.00 0.00 0.00 89 1011.6
20260905072540 70 0 0.0 3.0 0.00 0.00 0.00 88 1011.6
20260905072041 71 0 0.0 3.0 0.00 0.00 0.00 87 1011.6
20260905071555 71 0 0.0 3.0 0.00 0.00 0.00 86 1011.7
20260905071039 72 0 0.0 4.0 0.00 0.00 0.00 86 1011.7
20260905070541 72 0 0.0 7.0 0.00 0.00 0.00 86 1011.8
20260905070101 72 272 2.0 7.0 0.00 0.00 0.00 86 1011.9
20260905065540 72 274 3.0 7.0 0.00 0.00 0.00 86 1011.9
20260905065040 72 273 2.0 4.0 0.00 0.00 0.00 86 1011.8
20260905064553 72 263 1.0 6.0 0.00 0.00 0.00 86 1012.0
20260905064040 72 263 1.0 6.0 0.00 0.00 0.00 86 1012.1
20260905063537 72 0 1.0 7.0 0.00 0.00 0.00 86 1012.2
20260905063100 72 274 3.0 7.0 0.00 0.00 0.00 86 1012.4
20260905062541 72 279 2.0 3.0 0.00 0.00 0.00 86 1012.4
20260905062037 72 279 2.0 4.0 0.00 0.00 0.00 86 1012.4
20260905061608 73 277 2.0 4.0 0.00 0.00 0.00 85 1012.3
20260905061040 73 267 1.0 6.0 0.00 0.00 0.00 84 1012.4
20260905060541 73 267 2.0 7.0 0.00 0.00 0.00 84 1012.5
20260905060057 74 263 4.0 7.0 0.00 0.00 0.00 84 1012.4
20260905055537 74 274 2.0 6.0 0.00 0.00 0.00 83 1012.6
20260905055041 74 275 1.0 7.0 0.00 0.00 0.00 83 1012.5
20260905054555 74 271 3.0 7.0 0.00 0.00 0.00 83 1012.6
20260905054042 74 281 3.0 8.0 0.00 0.00 0.00 82 1012.6
20260905053541 75 257 3.0 8.0 0.00 0.00 0.00 82 1012.6
20260905053058 75 246 2.0 8.0 0.00 0.00 0.00 82 1012.7
20260905052543 75 259 3.0 8.0 0.00 0.00 0.00 82 1012.8
20260905052037 75 261 4.0 9.0 0.00 0.00 0.00 82 1012.9
20260905051550 75 281 3.0 10.0 0.00 0.00 0.00 82 1012.8
20260905051037 75 259 4.0 10.0 0.00 0.00 0.00 82 1012.8
20260905050537 75 234 6.0 10.0 0.00 0.00 0.00 82 1013.0
20260905050104 75 264 5.0 9.0 0.00 0.00 0.00 82 1013.0
20260905045536 75 269 5.0 11.0 0.00 0.00 0.00 82 1013.0
20260905045041 75 288 6.0 11.0 0.00 0.00 0.00 82 1013.0
20260905044603 75 280 4.0 9.0 0.00 0.00 0.00 83 1012.9
20260905044040 75 302 4.0 10.0 0.00 0.00 0.00 83 1012.8
20260905043541 75 288 4.0 10.0 0.00 0.00 0.00 83 1012.9
20260905043054 75 282 7.0 10.0 0.00 0.00 0.00 83 1012.8
20260905042540 75 279 6.0 11.0 0.00 0.00 0.00 83 1012.8
20260905042037 74 281 7.0 13.0 0.00 0.00 0.00 84 1012.8
20260905041553 74 274 6.0 13.0 0.00 0.00 0.00 86 1012.9
20260905041037 73 284 5.0 8.0 0.00 0.00 0.00 88 1013.0
20260905040540 72 318 2.0 4.0 0.00 0.00 0.00 88 1012.9
20260905040059 72 323 2.0 4.0 0.00 0.00 0.00 88 1013.0
20260905035538 73 325 1.0 5.0 0.00 0.01 0.00 87 1013.0
20260905035037 73 326 1.0 8.0 0.00 0.01 0.00 86 1013.0
20260905034554 74 328 4.0 8.0 0.00 0.01 0.00 85 1013.1
20260905034037 75 311 1.0 7.0 0.00 0.01 0.00 83 1013.0
20260905033537 75 296 1.0 7.0 0.00 0.01 0.00 83 1013.1
20260905033100 75 275 3.0 7.0 0.00 0.01 0.00 83 1013.0
20260905032542 76 295 2.0 7.0 0.00 0.01 0.00 83 1013.0
20260905032040 76 284 3.0 7.0 0.00 0.01 0.00 83 1013.0
20260905031550 75 289 2.0 6.0 0.00 0.01 0.00 83 1012.9
20260905031040 76 236 1.0 7.0 0.00 0.01 0.00 82 1012.9
20260905030540 76 251 2.0 8.0 0.00 0.01 0.00 82 1012.9
20260905030115 76 244 4.0 8.0 0.00 0.01 0.00 82 1012.7
20260905025540 76 259 3.0 8.0 0.00 0.02 0.00 82 1012.7
20260905025041 76 271 5.0 10.0 0.00 0.02 0.00 82 1012.6
20260905024552 76 294 3.0 10.0 0.00 0.02 0.00 82 1012.7
20260905024040 76 281 5.0 8.0 0.00 0.02 0.00 82 1012.5
20260905023540 76 297 3.0 8.0 0.00 0.02 0.00 82 1012.5
20260905023050 76 283 5.0 11.0 0.00 0.02 0.00 82 1012.6
20260905022540 76 298 5.0 11.0 0.00 0.02 0.00 82 1012.5
20260905022041 76 279 7.0 11.0 0.00 0.02 0.00 82 1012.6
20260905021556 76 284 8.0 10.0 0.00 0.02 0.00 81 1012.5
20260905021041 76 290 5.0 10.0 0.00 0.02 0.00 81 1012.5
20260905020538 76 257 5.0 10.0 0.00 0.02 0.00 81 1012.4
20260905015541 75 286 6.0 9.0 0.00 0.02 0.00 83 1012.3
20260905015042 74 281 5.0 10.0 0.00 0.02 0.00 84 1012.3
20260905014556 74 296 7.0 10.0 0.00 0.02 0.00 84 1012.4
20260905014042 74 304 5.0 8.0 0.00 0.02 0.00 84 1012.4
20260905013536 74 301 3.0 5.0 0.00 0.02 0.00 84 1012.4
20260905013052 74 314 3.0 8.0 0.00 0.02 0.00 83 1012.4
20260905012542 75 316 2.0 8.0 0.00 0.02 0.00 82 1012.4
20260905012041 76 315 5.0 11.0 0.00 0.02 0.00 81 1012.4
20260905011556 76 292 5.0 11.0 0.00 0.02 0.00 80 1012.5
20260905011040 76 295 6.0 10.0 0.00 0.02 0.00 80 1012.5
20260905010541 76 291 7.0 9.0 0.00 0.02 0.00 81 1012.5
20260905010113 76 292 5.0 9.0 0.00 0.02 0.00 81 1012.4
20260905005541 76 300 6.0 8.0 0.00 0.02 0.00 81 1012.5
20260905005038 76 296 4.0 9.0 0.00 0.02 0.00 81 1012.5
20260905004612 76 290 4.0 9.0 0.00 0.02 0.00 81 1012.4
20260905004041 76 298 4.0 9.0 0.00 0.02 0.00 81 1012.3
20260905003541 76 295 4.0 8.0 0.00 0.02 0.00 81 1012.5
20260905003056 76 288 5.0 8.0 0.00 0.02 0.00 81 1012.4
20260905002540 76 288 3.0 6.0 0.00 0.02 0.00 81 1012.4
20260905002040 76 287 2.0 5.0 0.00 0.02 0.00 81 1012.4
20260905001601 76 281 2.0 4.0 0.00 0.02 0.00 81 1012.3
20260905001044 76 288 2.0 6.0 0.00 0.02 0.00 80 1012.2
20260905000541 77 288 2.0 6.0 0.00 0.02 0.00 79 1012.2
20260905000059 77 282 2.0 5.0 0.00 0.02 0.00 79 1012.2
20260904235537 77 281 3.0 6.0 0.00 0.02 0.00 79 1012.3
20260904235040 77 281 3.0 6.0 0.00 0.02 0.00 79 1012.3
20260904234556 77 283 2.0 6.0 0.00 0.02 0.00 80 1012.3
20260904234043 77 274 0.0 3.0 0.00 0.02 0.00 80 1012.3
20260904233538 78 0 0.0 0.0 0.00 0.02 0.00 81 1012.3
20260904233058 78 0 0.0 0.0 0.00 0.02 0.00 81 1012.2
20260904232541 79 0 0.0 0.0 0.00 0.02 0.00 81 1012.2
20260904232038 79 0 0.0 0.0 0.00 0.02 0.00 79 1012.3
20260904231552 80 0 0.0 0.0 0.00 0.02 0.00 76 1012.2
20260904231037 80 0 0.0 3.0 0.00 0.02 0.00 75 1012.3
20260904230542 80 0 0.0 3.0 0.00 0.02 0.00 75 1012.4
20260904225540 81 0 0.0 6.0 0.00 0.02 0.00 73 1012.4
20260904225036 81 254 2.0 6.0 0.00 0.02 0.00 71 1012.7
20260904224555 82 288 3.0 7.0 0.00 0.02 0.00 70 1012.6
20260904224041 82 253 2.0 7.0 0.00 0.02 0.00 70 1012.5
20260904223539 82 0 0.0 4.0 0.00 0.02 0.00 73 1012.5
20260904223056 83 246 0.0 3.0 0.00 0.02 0.00 73 1012.4
20260904222540 83 247 1.0 4.0 0.00 0.02 0.00 72 1012.5
20260904222043 83 0 1.0 4.0 0.00 0.02 0.00 73 1012.5
20260904221558 83 243 1.0 5.0 0.00 0.02 0.00 73 1012.4
20260904221040 83 284 0.0 5.0 0.00 0.02 0.00 72 1012.3
20260904220540 83 0 2.0 7.0 0.00 0.02 0.00 72 1012.6
20260904220107 83 258 2.0 7.0 0.00 0.02 0.00 71 1012.6
20260904215540 84 264 1.0 4.0 0.00 0.02 0.00 70 1012.5
20260904215037 84 0 0.0 3.0 0.00 0.02 0.00 72 1012.4
20260904214624 84 261 0.0 6.0 0.00 0.02 0.00 72 1012.8
20260904214043 84 261 0.0 8.0 0.00 0.02 0.00 69 1012.7
20260904213538 84 0 3.0 8.0 0.00 0.02 0.00 69 1012.8
20260904213056 85 254 2.0 5.0 0.00 0.02 0.00 68 1012.8
20260904212544 85 236 2.0 5.0 0.00 0.02 0.00 69 1012.8
20260904212040 85 0 1.0 7.0 0.00 0.02 0.00 68 1012.9
20260904211618 85 299 3.0 8.0 0.00 0.02 0.00 67 1012.9
20260904211044 86 244 4.0 8.0 0.00 0.02 0.00 66 1012.9
20260904210539 86 234 1.0 9.0 0.00 0.02 0.00 69 1012.9
20260904210055 85 225 2.0 10.0 0.00 0.02 0.00 68 1012.8
20260904205544 85 238 3.0 13.0 0.00 0.02 0.00 69 1012.9
20260904205041 85 255 4.0 14.0 0.00 0.02 0.00 69 1013.1
20260904204601 85 227 2.0 14.0 0.00 0.02 0.00 71 1013.1
20260904204041 85 311 4.0 9.0 0.00 0.02 0.00 71 1013.1
20260904203544 85 0 0.0 4.0 0.00 0.02 0.00 72 1013.0
20260904203101 84 187 0.0 5.0 0.00 0.02 0.00 71 1012.8
20260904202540 84 202 1.0 5.0 0.00 0.02 0.00 75 1012.7
20260904202041 84 207 2.0 4.0 0.00 0.02 0.00 74 1012.8
20260904201558 83 208 1.0 4.0 0.00 0.02 0.00 72 1012.8
20260904201037 84 208 2.0 5.0 0.00 0.02 0.00 72 1012.7
20260904200540 84 0 1.0 7.0 0.00 0.02 0.00 71 1012.8
20260904195541 84 196 2.0 5.0 0.00 0.02 0.00 72 1013.0
20260904195040 84 189 2.0 5.0 0.00 0.02 0.00 71 1013.0
20260904194603 84 216 2.0 7.0 0.00 0.02 0.00 71 1013.1
20260904194040 84 245 2.0 7.0 0.00 0.02 0.00 70 1013.2
20260904193541 84 235 3.0 8.0 0.00 0.02 0.00 73 1013.4
20260904193056 83 263 2.0 9.0 0.00 0.02 0.00 72 1013.5
20260904192541 83 260 4.0 9.0 0.00 0.02 0.00 72 1013.6
20260904192040 83 254 4.0 9.0 0.00 0.02 0.00 72 1013.6
20260904191551 83 321 5.0 9.0 0.00 0.02 0.00 72 1013.4
20260904191041 83 317 5.0 9.0 0.00 0.02 0.00 71 1013.6
20260904190541 84 288 5.0 9.0 0.00 0.02 0.00 70 1013.4
20260904185542 84 284 3.0 9.0 0.00 0.02 0.00 71 1013.2
20260904185041 84 298 2.0 12.0 0.00 0.02 0.00 73 1013.5
20260904184552 84 298 7.0 12.0 0.00 0.02 0.00 71 1013.9
20260904184041 84 348 3.0 7.0 0.00 0.02 0.00 70 1013.9
20260904183542 84 306 1.0 8.0 0.00 0.02 0.00 72 1014.0
20260904183106 84 272 3.0 9.0 0.00 0.02 0.00 72 1014.1
20260904182540 84 286 5.0 12.0 0.00 0.02 0.00 69 1014.2
20260904182040 84 236 6.0 12.0 0.00 0.02 0.00 72 1014.2
20260904181556 84 257 3.0 8.0 0.00 0.02 0.00 72 1014.2
20260904181041 83 257 5.0 8.0 0.00 0.02 0.00 71 1014.3
20260904180541 83 327 3.0 14.0 0.00 0.02 0.00 71 1014.3
20260904180058 83 320 4.0 14.0 0.00 0.02 0.00 73 1014.4
20260904175539 83 272 9.0 13.0 0.00 0.02 0.00 72 1014.5
20260904175040 83 232 5.0 13.0 0.00 0.02 0.00 70 1014.4
20260904174606 83 271 5.0 14.0 0.00 0.02 0.00 73 1014.4
20260904174041 83 257 7.0 14.0 0.00 0.02 0.00 71 1014.3
20260904173541 83 293 4.0 12.0 0.00 0.02 0.00 73 1014.4
20260904173103 83 311 5.0 14.0 0.00 0.02 0.00 72 1014.4
20260904172540 82 244 7.0 14.0 0.00 0.02 0.00 71 1014.5
20260904172040 82 315 5.0 12.0 0.00 0.02 0.00 71 1014.4
20260904171604 82 267 5.0 13.0 0.00 0.02 0.00 71 1014.5
20260904171039 82 247 5.0 13.0 0.00 0.02 0.00 71 1014.4
20260904170540 82 290 9.0 13.0 0.00 0.02 0.00 70 1014.4
20260904170057 82 291 6.0 12.0 0.00 0.02 0.00 70 1014.4
20260904165540 82 255 4.0 12.0 0.00 0.02 0.00 73 1014.5
20260904165041 82 289 6.0 11.0 0.00 0.02 0.00 68 1014.6
20260904164611 82 5 5.0 11.0 0.00 0.02 0.00 72 1014.6
20260904164041 82 218 3.0 11.0 0.00 0.02 0.00 71 1014.6
20260904163540 82 277 5.0 15.0 0.00 0.02 0.00 71 1014.6
20260904163050 81 294 3.0 15.0 0.00 0.02 0.00 72 1014.7
20260904162540 81 248 9.0 15.0 0.00 0.02 0.00 71 1015.0
20260904162042 82 294 5.0 14.0 0.00 0.02 0.00 72 1014.9
20260904161610 81 281 1.0 10.0 0.00 0.02 0.00 69 1015.0
20260904161040 81 307 1.0 6.0 0.00 0.02 0.00 74 1014.9
20260904160544 81 278 2.0 9.0 0.00 0.02 0.00 72 1015.0
20260904160100 81 271 4.0 9.0 0.00 0.02 0.00 71 1014.9
20260904155540 81 300 4.0 8.0 0.00 0.02 0.00 72 1015.0
20260904155039 81 243 3.0 8.0 0.00 0.02 0.00 72 1015.1
20260904154554 81 223 4.0 11.0 0.00 0.02 0.00 75 1015.1
20260904154041 80 207 4.0 11.0 0.00 0.02 0.00 73 1015.1
20260904153540 80 200 3.0 8.0 0.00 0.02 0.00 72 1015.2
20260904153110 80 222 3.0 8.0 0.00 0.02 0.00 73 1015.2
20260904152541 80 220 3.0 8.0 0.00 0.02 0.00 73 1015.1
20260904152040 80 225 3.0 6.0 0.00 0.02 0.00 77 1015.1
20260904151550 79 182 2.0 4.0 0.00 0.02 0.00 73 1015.1
20260904151044 79 327 0.0 8.0 0.00 0.02 0.00 74 1015.1
20260904150540 79 290 3.0 8.0 0.00 0.02 0.00 75 1015.2
20260904150100 79 253 2.0 9.0 0.00 0.02 0.00 75 1015.3
20260904145542 78 333 3.0 9.0 0.00 0.14 0.00 78 1015.3
20260904145041 78 281 5.0 10.0 0.00 0.14 0.00 76 1015.3
20260904144554 78 301 2.0 10.0 0.00 0.14 0.00 77 1015.2
20260904144041 78 284 3.0 11.0 0.00 0.14 0.00 77 1015.2
20260904143541 78 284 7.0 11.0 0.00 0.14 0.00 77 1015.2
20260904143102 78 318 2.0 9.0 0.00 0.14 0.00 76 1015.2
20260904142542 78 0 0.0 4.0 0.00 0.14 0.00 75 1015.2
20260904142041 77 0 0.0 6.0 0.00 0.14 0.00 76 1015.3
20260904141550 77 0 2.0 6.0 0.00 0.14 0.00 76 1015.2
20260904141038 77 340 2.0 6.0 0.00 0.14 0.00 77 1015.2
20260904140541 76 336 3.0 6.0 0.00 0.14 0.00 80 1015.3
20260904135541 75 331 5.0 10.0 0.00 0.14 0.00 78 1015.3
20260904135038 76 331 7.0 10.0 0.00 0.14 0.00 78 1015.2
20260904134554 76 345 5.0 14.0 0.00 0.14 0.00 79 1015.3
20260904134040 75 307 8.0 14.0 0.00 0.14 0.00 80 1015.2
20260904133537 76 304 6.0 14.0 0.00 0.14 0.00 80 1015.4
20260904133054 76 281 6.0 10.0 0.00 0.14 0.00 79 1015.3
20260904132540 76 310 4.0 10.0 0.00 0.14 0.00 79 1015.3
20260904132040 76 327 4.0 9.0 0.00 0.14 0.00 79 1015.3
20260904131636 76 258 2.0 5.0 0.00 0.14 0.00 79 1015.3
20260904131040 76 0 3.0 5.0 0.00 0.14 0.00 78 1015.3
20260904130538 76 340 0.0 3.0 0.00 0.14 0.00 80 1015.3
20260904130059 75 0 0.0 4.0 0.00 0.14 0.00 82 1015.2
20260904125539 75 340 1.0 5.0 0.00 0.15 0.00 80 1015.3
20260904125040 75 340 2.0 10.0 0.00 0.15 0.00 80 1015.3
20260904124553 75 330 5.0 10.0 0.00 0.15 0.00 81 1015.4
20260904124041 75 336 1.0 5.0 0.00 0.15 0.00 80 1015.4
20260904123537 75 0 0.0 9.0 0.00 0.15 0.00 83 1015.3
20260904123106 75 13 3.0 9.0 0.00 0.15 0.00 81 1015.3
20260904122537 75 360 4.0 9.0 0.00 0.15 0.00 81 1015.2
20260904122038 75 0 1.0 4.0 0.00 0.15 0.00 81 1015.3
20260904121604 75 24 1.0 3.0 0.00 0.15 0.00 81 1015.2
20260904121037 74 69 0.0 6.0 0.00 0.15 0.00 81 1015.1
20260904120539 73 61 1.0 6.0 0.00 0.15 0.00 83 1015.2
20260904120057 73 58 4.0 6.0 0.00 0.15 0.00 84 1015.2
20260904115538 72 71 2.0 5.0 0.00 0.18 0.00 84 1015.1
20260904115041 72 50 1.0 6.0 0.00 0.18 0.00 84 1015.0
20260904114604 72 54 3.0 8.0 0.00 0.18 0.00 83 1015.0
20260904114042 72 75 4.0 9.0 0.00 0.18 0.00 83 1015.0
20260904113538 72 77 4.0 9.0 0.00 0.18 0.00 83 1014.9
20260904113105 72 69 6.0 11.0 0.00 0.18 0.00 83 1014.7
20260904112541 72 84 4.0 11.0 0.00 0.18 0.00 83 1015.0
20260904112038 72 42 5.0 9.0 0.00 0.18 0.00 83 1014.9
20260904111555 72 100 4.0 8.0 0.00 0.18 0.00 83 1014.9
20260904111038 73 88 1.0 7.0 0.00 0.18 0.00 82 1014.7
20260904110538 73 167 1.0 4.0 0.00 0.18 0.00 82 1014.6
20260904105538 73 263 6.0 13.0 0.00 0.20 0.00 81 1014.4
20260904105038 73 279 9.0 13.0 0.00 0.20 0.00 82 1014.3
20260904104604 73 315 7.0 14.0 0.00 0.20 0.00 81 1014.2
20260904104039 72 283 6.0 16.0 0.00 0.20 0.00 82 1014.3
20260904103537 72 290 10.0 16.0 0.00 0.20 0.00 83 1014.2
20260904103111 72 297 7.0 12.0 0.00 0.20 0.00 84 1014.1
20260904102541 71 339 5.0 10.0 0.00 0.20 0.00 85 1014.1
20260904102041 71 336 3.0 11.0 0.00 0.20 0.00 85 1014.1
20260904101601 71 343 5.0 11.0 0.00 0.20 0.00 85 1014.1
20260904101041 71 309 4.0 11.0 0.00 0.20 0.00 85 1014.0
20260904100538 71 309 6.0 11.0 0.00 0.20 0.00 85 1014.1
20260904100049 71 281 6.0 10.0 0.00 0.20 0.00 85 1014.2
20260904095541 71 317 7.0 11.0 0.00 0.44 0.00 85 1014.2
20260904095038 71 275 6.0 13.0 0.00 0.44 0.00 86 1014.3
20260904094557 71 300 7.0 13.0 0.00 0.44 0.00 85 1014.2
20260904094037 72 281 5.0 9.0 0.00 0.44 0.00 85 1014.3
20260904093541 72 280 6.0 9.0 0.00 0.44 0.00 85 1014.4
20260904093055 72 265 5.0 9.0 0.00 0.44 0.00 85 1014.3
20260904092540 71 302 2.0 7.0 0.00 0.44 0.00 85 1014.3
20260904092041 71 292 0.0 4.0 0.00 0.44 0.00 85 1014.4
20260904091610 71 0 0.0 4.0 0.00 0.44 0.00 85 1014.2
20260904091043 72 0 1.0 10.0 0.00 0.44 0.00 85 1014.1
20260904090545 72 257 2.0 15.0 0.00 0.44 0.00 85 1014.2
20260904090056 72 287 8.0 15.0 0.00 0.44 0.00 86 1014.1